Location: ????????
(54.6123°N, 39.2099°E)
Time: 16:32:41
(UTC+00:00)

USA 238 DEB - Pass Details

Date: 19 May 2025
Orbit: 899 x 1311 km, 63.4° (Epoch: 11 June)

Event Time Altitude Azimuth Distance (km) Brightness Sun altitude
Rises 23:06:34 0° 309° (NW) 3,879 6.8 -12.0°
Reaches altitude 10° 23:09:07 10° 310° (NW) 2,978 6.2 -11.8°
Maximum altitude 23:16:20 87° 40° (NE) 1,199 4.0 -11.3°
Drops below altitude 10° 23:24:13 10° 131° (SE) 3,248 6.1 -10.8°
Sets 23:27:07 0° 132° (SE) 4,249 6.7 -10.6°
